[[{"header":{"parameterUnit":"m.s-1","parameterCategory":1,"la1":30.2991,"la2":30.254,"lo1":-89.0895,"lo2":-89.0444,"dy":0.0017,"dx":0.0017,"nx":28,"ny":28,"refTime":"2025-09-01T03:00:00:Z","depth":0,"parameterNumber":2,"parameterNumberName":"U-component_of_WINDS"},"data":[0,0,0,0,0,0,0,0,0,0,0,0,0,0,0,0,0,0,0,0,0,0,0,0,0,0,0,0,0,0,0,0,0,0,0,0,0,0,0,0,0,0,0,0,0,0,0,0,0,0,0,0,0,0,0,0,0,0,-1.2953,-1.2954,0,-1.3067,-1.3069,-1.307,-1.3065,-1.3064,-1.3062,-1.306,-1.318,-1.3184,-1.3189,0,0,0,0,0,0,0,0,0,0,0,0,0,-1.2732,-1.2736,-1.2953,-1.2954,-1.2956,-1.3067,-1.3069,-1.307,-1.3065,-1.3064,-1.3062,-1.306,-1.3178,-1.3184,-1.3189,0,0,0,0,0,0,0,0,0,0,0,0,0,-1.2836,-1.2738,-1.2953,-1.2967,-1.2969,-1.3067,-1.3069,-1.3071,-1.3066,-1.3063,-1.3061,-1.3059,-1.3176,-1.3183,-1.319,-1.3282,0,0,-1.3211,-1.3214,0,0,0,0,0,0,0,0,-1.283,-1.2844,-1.2963,-1.2966,-1.2969,-1.305,-1.3035,-1.3142,-1.3067,-1.3029,-1.306,-1.3058,-1.3138,-1.3148,-1.3175,-1.3287,-1.3293,-1.3212,-1.3216,-1.3219,-1.3221,0,0,0,0,0,0,0,-1.2823,-1.2839,-1.2998,-1.2965,-1.2968,-1.2968,-1.298,-1.3055,-1.3096,-1.3032,-1.3032,-1.3046,-1.3139,-1.3168,-1.3178,-1.3294,-1.3212,-1.3218,-1.3222,-1.3225,-1.3488,-1.3491,0,0,0,0,0,0,-1.2812,-1.2833,-1.2995,-1.3002,-1.2892,-1.2974,-1.2987,-1.3026,-1.3095,-1.3103,-1.3048,-1.3045,-1.3158,-1.317,-1.3182,-1.3295,-1.3219,-1.3226,-1.323,-1.3486,-1.3489,-1.3492,0,0,0,0,0,0,-1.2807,-1.2827,-1.299,-1.2917,-1.2938,-1.298,-1.3024,-1.303,-1.3059,-1.3107,-1.3114,-1.307,-1.3156,-1.3172,-1.3257,-1.3299,-1.3229,-1.3235,-1.3482,-1.3487,-1.3491,-1.352,0,0,0,0,0,0,-1.2801,-1.2825,-1.286,-1.2918,-1.2942,-1.3063,-1.3026,-1.3034,-1.3071,-1.3068,-1.3129,-1.3137,-1.3156,-1.3247,-1.3264,-1.3307,-1.3241,-1.3479,-1.3484,-1.3489,-1.3516,-1.3525,-1.3533,0,0,0,0,0,-1.2793,-1.2864,-1.2862,-1.2881,-1.2986,-1.3065,-1.3079,-1.3098,-1.3074,-1.311,-1.3141,-1.3135,-1.3291,-1.3255,-1.3275,-1.3321,-1.3476,-1.3483,-1.3489,-1.3512,-1.3523,-1.3533,0,0,0,0,0,0,-1.281,-1.2872,-1.287,-1.2961,-1.3008,-1.3064,-1.311,-1.3109,-1.3164,-1.3159,-1.3181,-1.3195,-1.328,-1.3309,-1.3268,-1.3414,-1.3381,-1.3391,-1.3392,-1.3403,-1.3411,-1.3402,-1.3247,0,0,0,0,0,-1.2824,-1.2882,-1.2933,-1.3009,-1.3033,-1.3067,-1.3102,-1.3113,-1.3162,-1.3182,-1.3219,-1.3268,-1.3328,-1.3367,-1.3425,-1.352,-1.3534,-1.3561,-1.357,-1.3576,-1.3585,-1.3638,-1.3651,-1.3513,-1.3513,-1.3512,0,0,-1.2855,-1.2896,-1.2931,-1.3014,-1.3051,-1.3111,-1.3084,-1.3149,-1.3194,-1.3192,-1.3274,-1.3303,-1.3359,-1.345,-1.3491,-1.3476,-1.3627,-1.3584,-1.3589,-1.3595,-1.3646,-1.3659,-1.3671,-1.3517,-1.3516,-1.3515,0,0,-1.2941,-1.2977,-1.3044,-1.3082,-1.3139,-1.3161,-1.3177,-1.3234,-1.3253,-1.3336,-1.3336,-1.339,-1.3493,-1.3533,-1.3566,-1.3668,-1.3665,-1.3686,-1.373,-1.3782,-1.3793,-1.3803,-1.3839,-1.3852,-1.3695,-1.3695,-1.3695,0,-1.2972,-1.3061,-1.3079,-1.3145,-1.3181,-1.3182,-1.3251,-1.3287,-1.3359,-1.3385,-1.3367,-1.3496,-1.3534,-1.3634,-1.3659,-1.3686,-1.3705,-1.3679,-1.379,-1.38,-1.3809,-1.3844,-1.3858,-1.3697,-1.3697,-1.3696,-1.3696,0,-1.3097,-1.3159,-1.3207,-1.3276,-1.3318,-1.3385,-1.3414,-1.3454,-1.3462,-1.3486,-1.3571,-1.3616,-1.3683,-1.3708,-1.3715,-1.3809,-1.3798,-1.3785,-1.3752,-1.3824,-1.3858,-1.3871,-1.37,-1.3699,-1.3699,-1.3698,0,0,-1.3197,-1.3275,-1.3292,-1.3324,-1.3386,-1.3435,-1.3502,-1.3567,-1.3602,-1.3652,-1.371,-1.3797,-1.3785,-1.3823,-1.3835,-1.388,-1.3958,-1.3862,-1.3863,-1.3878,-1.4065,-1.4075,-1.409,-1.3957,-1.396,-1.3962,-1.4061,0,-1.3289,-1.3407,-1.3425,-1.353,-1.3588,-1.3589,-1.3648,-1.3693,-1.3718,-1.3771,-1.3799,-1.3861,-1.384,-1.3863,-1.3908,-1.3939,-1.3996,-1.3932,-1.4011,-1.4014,-1.3997,-1.4108,-1.4118,-1.421,-1.4074,-1.4076,-1.4078,0,-1.3413,-1.3466,-1.3576,-1.363,-1.3655,-1.3707,-1.3769,-1.382,-1.3871,-1.3886,-1.3929,-1.3936,-1.4006,-1.3971,-1.4069,-1.4025,-1.4058,-1.4079,-1.4083,-1.4091,-1.405,-1.4119,-1.4239,-1.4253,-1.4098,-1.4097,-1.4095,0,-1.3476,-1.3574,-1.3653,-1.368,-1.3745,-1.3782,-1.3811,-1.386,-1.3898,-1.3952,-1.3977,-1.4038,-1.4072,-1.412,-1.4144,-1.4116,-1.4241,-1.4207,-1.4256,-1.4255,-1.4282,-1.428,-1.4409,-1.4303,-1.4303,-1.4303,-1.4302,0,-1.3578,-1.3645,-1.3681,-1.373,-1.3805,-1.3826,-1.39,-1.3929,-1.3972,-1.4027,-1.4032,-1.4083,-1.4111,-1.4167,-1.4186,-1.4265,-1.428,-1.4295,-1.4299,-1.4294,-1.4293,-1.4317,-1.4311,-1.4306,-1.4305,-1.4305,-1.4304,0,-1.366,-1.3687,-1.3773,-1.3828,-1.3843,-1.3896,-1.3944,-1.3991,-1.4015,-1.4085,-1.4102,-1.4141,-1.4207,-1.4235,-1.4316,-1.4329,-1.4419,-1.4419,-1.4402,-1.4403,-1.4451,-1.4446,-1.46,-1.4622,-1.4501,-1.4502,-1.4503,0,-1.3724,-1.3775,-1.3835,-1.3871,-1.3901,-1.396,-1.3999,-1.4021,-1.4061,-1.4124,-1.4164,-1.423,-1.4283,-1.4389,-1.4425,-1.4487,-1.4489,-1.4538,-1.4498,-1.4492,-1.449,-1.4487,-1.4492,-1.4546,-1.4547,-1.4548,-1.4549,0,-1.3834,-1.3844,-1.3899,-1.3959,-1.4005,-1.4053,-1.4101,-1.413,-1.416,-1.4205,-1.4272,-1.4314,-1.4396,-1.4462,-1.4527,-1.4558,-1.4559,-1.4561,-1.4576,-1.4572,-1.456,-1.4568,-1.4422,-1.4558,-1.4557,-1.4556,-1.4556,-1.4555,-1.3909,-1.3955,-1.4004,-1.4065,-1.4103,-1.4147,-1.4194,-1.4224,-1.428,-1.4349,-1.4359,-1.443,-1.4481,-1.4568,-1.4601,-1.4658,-1.4646,-1.4667,-1.4673,-1.4678,-1.4681,-1.455,-1.467,-1.467,-1.467,-1.467,-1.467,0,-1.402,-1.4051,-1.4107,-1.4173,-1.4221,-1.4216,-1.4269,-1.431,-1.4372,-1.4419,-1.4472,-1.4549,-1.4613,-1.4654,-1.4718,-1.4756,-1.4758,-1.4772,-1.477,-1.4777,-1.4688,-1.4669,-1.4769,-1.4769,-1.4769,-1.4769,-1.4769,-1.4769,-1.4083,-1.416,-1.4177,-1.4274,-1.4305,-1.4374,-1.4405,-1.4446,-1.4483,-1.4569,-1.4621,-1.4647,-1.4692,-1.476,-1.4818,-1.4829,-1.4853,-1.4868,-1.4878,-1.4794,-1.4783,-1.4773,-1.4756,-1.4872,-1.4872,-1.4962,-1.4963,-1.4963]},{"header":{"parameterUnit":"m.s-1","parameterCategory":1,"la1":30.2991,"la2":30.254,"lo1":-89.0895,"lo2":-89.0444,"dy":0.0017,"dx":0.0017,"nx":28,"ny":28,"refTime":"2025-09-01T03:00:00:Z","depth":0,"parameterNumber":3,"parameterNumberName":"V-component_of_WINDS"},"data":[0,0,0,0,0,0,0,0,0,0,0,0,0,0,0,0,0,0,0,0,0,0,0,0,0,0,0,0,0,0,0,0,0,0,0,0,0,0,0,0,0,0,0,0,0,0,0,0,0,0,0,0,0,0,0,0,0,0,3.4735,3.4736,0,3.4805,3.4806,3.4807,3.4835,3.4834,3.4834,3.4834,3.4899,3.4901,3.4902,0,0,0,0,0,0,0,0,0,0,0,0,0,3.4617,3.4619,3.4735,3.4736,3.4737,3.4805,3.4806,3.4807,3.4835,3.4834,3.4834,3.4834,3.4898,3.49,3.4903,0,0,0,0,0,0,0,0,0,0,0,0,0,3.4676,3.462,3.4735,3.4759,3.4762,3.4805,3.4806,3.4807,3.4835,3.4834,3.4834,3.4834,3.4897,3.49,3.4903,3.4925,0,0,3.4912,3.4913,0,0,0,0,0,0,0,0,3.4672,3.468,3.4755,3.4757,3.4761,3.4811,3.4788,3.4847,3.4835,3.4807,3.4834,3.4834,3.4869,3.4874,3.4888,3.4928,3.4931,3.4912,3.4913,3.4915,3.4915,0,0,0,0,0,0,0,3.4668,3.4677,3.4763,3.4756,3.4759,3.4764,3.4772,3.4799,3.4838,3.4809,3.4811,3.482,3.4871,3.4885,3.489,3.4932,3.4912,3.4914,3.4916,3.4917,3.4992,3.4992,0,0,0,0,0,0,3.4661,3.4673,3.476,3.4765,3.4715,3.4766,3.4775,3.4795,3.4838,3.4845,3.482,3.4821,3.488,3.4886,3.4892,3.492,3.4915,3.4917,3.4919,3.4992,3.4992,3.4992,0,0,0,0,0,0,3.4658,3.4669,3.4758,3.472,3.4732,3.4768,3.4791,3.4797,3.4811,3.4846,3.4853,3.4828,3.4881,3.4888,3.4917,3.4923,3.4919,3.4921,3.4991,3.4992,3.4992,3.4977,0,0,0,0,0,0,3.4655,3.4668,3.4678,3.472,3.4733,3.4784,3.4791,3.4798,3.4817,3.4818,3.4855,3.4861,3.4881,3.4913,3.492,3.4927,3.4923,3.4991,3.4992,3.4992,3.4977,3.4977,3.4977,0,0,0,0,0,3.4651,3.467,3.4679,3.4689,3.4748,3.4784,3.4791,3.4816,3.4817,3.4827,3.4849,3.486,3.4921,3.4915,3.4923,3.4931,3.4991,3.4991,3.4992,3.4977,3.4977,3.4977,0,0,0,0,0,0,3.4626,3.4676,3.4686,3.472,3.4748,3.4789,3.4802,3.4815,3.4841,3.4841,3.4868,3.4876,3.4902,3.492,3.4912,3.4954,3.4956,3.4959,3.4942,3.4942,3.4942,3.4937,3.4926,0,0,0,0,0,3.4625,3.4652,3.4693,3.4719,3.4733,3.4765,3.4781,3.4798,3.4827,3.4838,3.4862,3.4888,3.4913,3.4928,3.4953,3.498,3.4987,3.4989,3.4989,3.4988,3.499,3.5004,3.5005,3.4995,3.4995,3.4995,0,0,3.4622,3.4653,3.4668,3.4715,3.4738,3.4764,3.4775,3.4801,3.482,3.4841,3.4871,3.4889,3.4919,3.4947,3.496,3.4962,3.4994,3.4989,3.4989,3.4991,3.5005,3.5006,3.5007,3.4995,3.4995,3.4995,0,0,3.463,3.4657,3.4681,3.4704,3.474,3.4762,3.4767,3.4806,3.482,3.485,3.4867,3.4887,3.493,3.4951,3.4966,3.4981,3.4991,3.4988,3.4987,3.5,3.5001,3.5002,3.5006,3.5008,3.4989,3.4989,3.4989,0,3.4621,3.4663,3.4691,3.4717,3.4736,3.4759,3.4782,3.4802,3.4843,3.4855,3.4857,3.4911,3.4932,3.4965,3.4968,3.4981,3.4986,3.4984,3.4999,3.5,3.5001,3.5006,3.5007,3.4989,3.4989,3.4989,3.4989,0,3.465,3.4678,3.4693,3.4735,3.4755,3.478,3.4809,3.4826,3.484,3.486,3.4889,3.4916,3.4946,3.4955,3.4968,3.4988,3.4988,3.4994,3.4997,3.5001,3.5006,3.5008,3.4988,3.4988,3.4988,3.4988,0,0,3.4645,3.4702,3.4707,3.4726,3.4767,3.4788,3.4811,3.4843,3.4857,3.4884,3.4904,3.4939,3.4944,3.4962,3.4978,3.4989,3.4998,3.4994,3.4995,3.4993,3.5021,3.5016,3.5018,3.5005,3.5006,3.5006,3.5018,0,3.4658,3.4706,3.4731,3.4766,3.4792,3.4813,3.4833,3.4859,3.4878,3.49,3.492,3.4944,3.495,3.4961,3.4974,3.4995,3.5004,3.4994,3.5022,3.5023,3.5014,3.5021,3.5016,3.5026,3.502,3.5021,3.5021,0,3.4681,3.471,3.4748,3.4786,3.4797,3.4816,3.4846,3.4868,3.4896,3.4909,3.4929,3.4944,3.4968,3.4969,3.5,3.4993,3.5006,3.5017,3.5018,3.5022,3.5022,3.5024,3.503,3.5032,3.5024,3.5024,3.5024,0,3.4672,3.4721,3.475,3.4766,3.481,3.4822,3.4841,3.4869,3.4887,3.4912,3.4923,3.495,3.4965,3.4985,3.5006,3.5005,3.5035,3.5038,3.5045,3.5044,3.505,3.5049,3.5059,3.5058,3.5058,3.5058,3.5058,0,3.4685,3.4707,3.4747,3.4765,3.479,3.4817,3.484,3.486,3.4885,3.4906,3.4924,3.4942,3.497,3.499,3.5007,3.503,3.5036,3.5046,3.505,3.5044,3.5043,3.5053,3.5052,3.5059,3.5059,3.5059,3.5059,0,3.468,3.4708,3.4741,3.4781,3.4791,3.4808,3.484,3.4857,3.4877,3.4902,3.4909,3.4939,3.4964,3.4988,3.5021,3.5032,3.5055,3.506,3.5046,3.5048,3.5054,3.5053,3.5069,3.5073,3.507,3.507,3.507,0,3.4686,3.4704,3.4746,3.4762,3.4781,3.4806,3.4824,3.4851,3.4868,3.4902,3.4914,3.4941,3.4964,3.5003,3.5026,3.5051,3.5057,3.5061,3.5061,3.5054,3.5057,3.5055,3.5057,3.5061,3.5061,3.5061,3.506,0,3.4693,3.4706,3.4733,3.4764,3.4786,3.4811,3.4836,3.4847,3.4878,3.4896,3.4924,3.4942,3.4976,3.5002,3.503,3.5046,3.5058,3.506,3.5063,3.5058,3.5049,3.5053,3.5045,3.506,3.506,3.506,3.506,3.506,3.4694,3.4711,3.4743,3.4772,3.4794,3.4817,3.4835,3.4857,3.4881,3.4913,3.4926,3.4953,3.498,3.5018,3.5035,3.5055,3.5057,3.5061,3.5062,3.5063,3.5062,3.5046,3.506,3.506,3.506,3.506,3.506,0,3.4702,3.4724,3.475,3.4786,3.4808,3.4819,3.4847,3.4864,3.4889,3.4914,3.4936,3.4967,3.4992,3.5017,3.5043,3.5054,3.506,3.506,3.5059,3.5063,3.5058,3.5053,3.5055,3.5055,3.5055,3.5055,3.5055,3.5055,3.4709,3.4738,3.4754,3.4793,3.4814,3.4843,3.4858,3.4879,3.4899,3.4933,3.4955,3.4972,3.4996,3.5024,3.5046,3.5053,3.5061,3.506,3.5068,3.5063,3.5063,3.5063,3.5059,3.5061,3.5061,3.5071,3.5071,3.5071]}]]